Home   Weather   Wailuku   Past weeks

Flag for USA Past Weather in Wailuku, Hawaii, USA — Yesterday and Last 2 Weeks

Now
72 °F

Partly cloudy.


Feels Like: 76 °F
Forecast: 68 / 79 °F
Wind: 16 mph from Northeast

Location: Kahului Airport

Current Time: Feb 20, 2017 at 11:43:03 pm

Latest Report: Feb 20, 2017 at 10:54 pm


Visibility: 10 mi

Pressure: 30.25 "Hg

Humidity: 64%

Dew Point: 59 °F

Location of WailukuLocation

Past Weather in Wailuku — Graph

°F

Wailuku Temperature Yesterday

Maximum temperature yesterday: 79 °F (at 12:54 pm)
Minimum temperature yesterday: 71 °F (at 4:54 am)
Average temperature yesterday: 74 °F

High & Low Weather Summary for the Past Weeks

 TemperatureHumidityPressure
High85 °F (Feb 17, 11:54 am)96% (Feb 18, 4:54 am)30.26 "Hg (Feb 18, 4:54 am)
Low58 °F (Feb 10, 4:54 am)43% (Feb 7, 3:54 pm)29.73 "Hg (Feb 6, 3:54 pm)
Average74 °F75%30.00 "Hg
* Reported Feb 5 9:54 pm — Feb 20 9:54 pm, Wailuku, Weather by CustomWeather, © 2017

Note: Actual official high and low records may vary slightly from our data, if they occured in-between our weather recording intervals... More about our weather records

Advertising

Wailuku Weather History for the Previous 24 Hours

Scroll right to see more
 ConditionsComfort  
Time TempWeatherWind HumidityBarometerVisibility
9:54 pm
Mon, Feb 20
71 °FPartly cloudy.12 mph68%30.26 "Hg10 mi
8:54 pm72 °FPassing clouds.14 mph64%30.25 "Hg10 mi
7:54 pm71 °FPassing clouds.13 mph68%30.23 "Hg10 mi
6:54 pm73 °FPassing clouds.17 mph59%30.20 "Hg10 mi
5:54 pm73 °FScattered clouds.17 mph59%30.17 "Hg10 mi
4:54 pm75 °FScattered clouds.17 mph58%30.16 "Hg10 mi
3:54 pm78 °FScattered clouds.24 mph52%30.15 "Hg10 mi
2:54 pm78 °FScattered clouds.25 mph56%30.15 "Hg10 mi
1:54 pm76 °FScattered clouds.15 mph56%30.17 "Hg10 mi
12:54 pm78 °FScattered clouds.20 mph50%30.20 "Hg10 mi
11:54 am78 °FScattered clouds.22 mph48%30.22 "Hg10 mi
10:54 am76 °FBroken clouds.21 mph54%30.24 "Hg10 mi
9:54 am75 °FBroken clouds.22 mph58%30.25 "Hg10 mi
8:54 am71 °FLight rain. Broken clouds.18 mph68%30.24 "Hg10 mi
7:54 am72 °FLight rain. Broken clouds.21 mph68%30.23 "Hg8 mi
6:54 am72 °FMore clouds than sun.17 mph68%30.22 "Hg10 mi
5:54 am72 °FPassing clouds.18 mph66%30.20 "Hg10 mi
5:38 am72 °FMostly cloudy.17 mph66%30.18 "Hg10 mi
4:54 am72 °FOvercast.16 mph66%30.18 "Hg10 mi
3:54 am72 °FOvercast.22 mph66%30.17 "Hg10 mi
2:54 am72 °FOvercast.15 mph59%30.18 "Hg10 mi
1:54 am72 °FMostly cloudy.18 mph59%30.20 "Hg10 mi
12:54 am72 °FOvercast.20 mph64%30.22 "Hg10 mi
11:54 pm
Sun, Feb 19
72 °FPassing clouds.22 mph64%30.23 "Hg10 mi
Weather by CustomWeather, © 2017

See weather overviewHow to use our weather pages